星链-5409 (STARLINK-5409 )

导读 | 星芒AI

STARLINK-5409 是 SpaceX 星链计划中的一颗低轨通信卫星,属于第 13 批部署的星链卫星群。该卫星于 2021 年 11 月发射,运行在约 550 公里的近地轨道,旨在为全球提供高速互联网服务。星链项目通过部署大量卫星,构建覆盖全球的宽带网络,尤其服务于偏远地区。STARLINK-5409 采用先进推进系统,具备自主变轨和避障能力,有助于提升星座的稳定性和安全性。

基本信息
目录编号:
54859
目录名称:
STARLINK-5409
国际标识:
2022-177AR
轨道中心:
EARTH
卫星名称:
星链-5409
卫星全名:
星链-5409 (STARLINK-5409 )
卫星状态:
在轨 (已飞行1042 天)
发射日期:
2022-12-28 UTC
国别 :
美国 (US)
星等 :
--
轨道信息
数据来源 国际轨道数据
星历时间: 2025-11-04T10:19:04+0800
17小时前
查看轨道信息
半长轴: 6937.215km
偏心率: 0.0001219
轨道倾角: 43.005°
近地点辐角 268.748°
升交点赤经 82.689°
平近点角 91.322°
近地点: 558.234km
远地点: 559.926km
周期: 95.838分钟
每日圈数: 15.025368
详细信息
固有亮度:
5
最大亮度:
2.5
卫星平台:
Starlink v1.5
覆盖范围:
全球
运营商:
太空探索技术公司
运营商所在国:
美国
制造商(研发单位):
太空探索技术公司
制造商所在国:
美国
使用方式:
暂无
卫星简介
星链(Starlink)计划是由太空探索技术公司(SpaceX)提出的一个巨型低轨卫星互联网星座项目,计划在2019年至2024年间在太空搭建由约1.2万颗卫星组成的“星链”网络,其中1584颗将部署在地球上空550千米处的近地轨道,并从2020年开始工作。该卫星仍在工作。
2D轨道图
3D轨道图
轨道高度分析图
轨道倾角分析图
轨道综合分析图
查看轨道综合分析图